Overview Statistics Trail Chart Weather Telemetry Raw packets
 

This is the latest recevied weather packets stored in our database for station/object 4S6DRJ-13. If no packets are shown the sender has not sent any weather packets the latest 10 day(s).

<< 194 195 196 197 198 199 200 >>
Time Temp. Humidity Pressure Rain* Wind** Luminosity Snow
1788176953 29.44° C 76% 1007.3 hPa 0 mm 0.45 m/s, 169° 119 W/m² -
1788176892 29.44° C 76% 1007.1 hPa 0 mm 1.34 m/s, 335° 123 W/m² -
1788176831 29.44° C 76% 1007.3 hPa 0 mm 1.34 m/s, 260° 120 W/m² -
1788176770 29.44° C 77% 1007.5 hPa 0 mm 1.34 m/s, 213° 156 W/m² -
1788176709 29.44° C 77% 1007.3 hPa 0 mm 1.79 m/s, 204° 106 W/m² -
1788176648 29.44° C 77% 1007.2 hPa 0 mm 0.89 m/s, 286° 98 W/m² -
1788176586 29.44° C 77% 1007.3 hPa 0 mm 0.89 m/s, 257° 99 W/m² -
1788176525 29.44° C 77% 1007.2 hPa 0 mm 2.24 m/s, 56° 111 W/m² -
1788176465 29.44° C 76% 1007.2 hPa 0 mm 0.89 m/s, 303° 108 W/m² -
1788176404 29.44° C 76% 1007.3 hPa 0 mm 2.68 m/s, 196° 113 W/m² -
1788176343 29.44° C 77% 1007.2 hPa 0 mm 2.24 m/s, 116° 203 W/m² -
1788176282 29.44° C 77% 1007.3 hPa 0 mm 1.79 m/s, 183° 202 W/m² -
1788176221 29.44° C 77% 1007.1 hPa 0 mm 0.89 m/s, 236° 115 W/m² -
1788176160 29.44° C 77% 1007.3 hPa 0 mm 1.34 m/s, 216° 112 W/m² -
1788176099 30° C 77% 1007.2 hPa 0 mm 1.34 m/s, 183° 104 W/m² -
1788176038 30° C 76% 1007.1 hPa 0 mm 1.79 m/s, 223° 111 W/m² -
1788175977 30° C 75% 1007.1 hPa 0 mm 2.68 m/s, 235° 99 W/m² -
1788175916 30° C 75% 1007.3 hPa 0 mm 1.79 m/s, 39° 92 W/m² -
1788175855 30° C 75% 1007.1 hPa 0 mm 1.34 m/s, 223° 103 W/m² -
1788175794 30° C 75% 1007.2 hPa 0 mm 0.89 m/s, 273° 103 W/m² -
1788175733 30° C 75% 1007.1 hPa 0 mm 1.34 m/s, 222° 136 W/m² -
1788175672 30° C 75% 1007.1 hPa 0 mm 1.79 m/s, 236° 213 W/m² -
1788175611 30° C 74% 1007 hPa 0 mm 1.34 m/s, 326° 205 W/m² -
1788175550 30° C 75% 1007 hPa 0 mm 2.24 m/s, 332° 111 W/m² -
1788175489 30° C 75% 1006.9 hPa 0 mm 2.24 m/s, 155° 219 W/m² -

* Rain latest hour (hover to see other rain measurements)
** Current wind speed in m/s (hover to see current wind gust speed)